Regional Weather Roundup
Issued by NWS

Home | Current Version | Previous Version | Graphics & Text | Print | Product List | Glossary On
Versions: 1 2 3 4 5 6 7 8 9 10 11 12 13 14 15 16 17 18 19 20 21 22 23 24 25 26 27 28 29 30 31 32 33 34 35 36 37 38 39 40 41 42 43 44 45 46 47 48 49 50
000
ASUS45 KCYS 180610
RWRWY

WYOMING REGIONAL WEATHER ROUNDUP
NATIONAL WEATHER SERVICE CHEYENNE WY
1100 PM MST WED JAN 17 2018

NOTE:  "FAIR" INDICATES FEW OR NO CLOUDS BELOW 12,000 FEET
WITH NO SIGNIFICANT WEATHER AND/OR OBSTRUCTIONS TO VISIBILITY.

WYZ001-180700-
YELLOWSTONE NATIONAL PARK

CITY           SKY/WX    TMP DP  RH WIND       PRES   REMARKS
LK YELLOWSTONE   N/A     24  21  88 CALM      30.31S
6HR MIN TEMP:  21; 6HR MAX TEMP:  27;

W YELLOWSTONE  NOT AVBL

$$
WYZ002>013-054>058-071-098>099-180700-
NORTHERN WYOMING

CITY           SKY/WX    TMP DP  RH WIND       PRES   REMARKS
JACKSON        FAIR       8   5  87 NE6       30.35R WCI  -2
CODY           FAIR      44  15  31 SW7       30.12S
GREYBULL       FAIR      13   8  81 SE6       30.17F WCI   4
6HR MIN TEMP:   9; 6HR MAX TEMP:  18;

WORLAND        FAIR      11   8  88 SW3       30.15F
6HR MIN TEMP:  11; 6HR MAX TEMP:  23;

SHERIDAN       FAIR      32  15  49 S7        30.01F WCI  26
6HR MIN TEMP:  20; 6HR MAX TEMP:  33;

BUFFALO        FAIR      41   9  26 SW7       30.05F
6HR MIN TEMP:  30; 6HR MAX TEMP:  43;

GILLETTE         N/A    N/A N/A N/A MISG      30.04S
HULETT         FAIR      39  21  48 MISG      30.04F
NEWCASTLE      FAIR      30  18  59 E8        30.11F WCI  23

$$
WYZ014>020-022>026-101>103-180700-
CENTRAL WYOMING

CITY           SKY/WX    TMP DP  RH WIND       PRES   REMARKS
BIG PINEY      FAIR      16  12  84 N3        30.32S
6HR MIN TEMP:  13; 6HR MAX TEMP:  31;

PINEDALE       FAIR      10   9  92 NW7       30.32R WCI   0
DUBOIS         FAIR      30  14  51 NW18      30.22R WCI  18
LANDER         FAIR      16  13  88 N3        30.17F
6HR MIN TEMP:  15; 6HR MAX TEMP:  27;

RIVERTON       FAIR      17  11  77 S5        30.19F WCI  10
6HR MIN TEMP:  14; 6HR MAX TEMP:  22;

CASPER         FAIR      37  22  54 SW21G29   30.16S WCI  26
6HR MIN TEMP:  32; 6HR MAX TEMP:  38;

DOUGLAS        FAIR      24  19  81 CALM      30.13F
6HR MIN TEMP:  20; 6HR MAX TEMP:  36;


$$
WYZ021-027>030-104>119-180700-
SOUTHERN WYOMING

CITY           SKY/WX    TMP DP  RH WIND       PRES   REMARKS
EVANSTON       FAIR      28  24  85 SW10      30.32F WCI  19
6HR MIN TEMP:  28; 6HR MAX TEMP:  36;

FORT BRIDGER   FAIR      30  25  81 SW8       30.34F WCI  22
ROCK SPRINGS   FAIR      28  22  78 SW9       30.30F WCI  19
6HR MIN TEMP:  27; 6HR MAX TEMP:  36;

DIXON            N/A     23  15  71 CALM      30.38F
RAWLINS        FAIR      29  16  58 CALM      30.28F
6HR MIN TEMP:  29; 6HR MAX TEMP:  35;

SARATOGA       FAIR      21  14  73 S10       30.32S WCI  10
LARAMIE        FAIR      18  11  74 S7        30.23F WCI   9
6HR MIN TEMP:  16; 6HR MAX TEMP:  35;

CHEYENNE       FAIR      31  11  43 SW13      30.20R WCI  21
6HR MIN TEMP:  23; 6HR MAX TEMP:  39;

TORRINGTON     FAIR      19  17  92 E7        30.15F WCI  10
6HR MIN TEMP:  19; 6HR MAX TEMP:  43;


$$



USA.gov is the U.S. government's official web portal to all federal, state and local government web resources and services.